Regional Weather Roundup
Issued by NWS

Home | Current Version | Previous Version | Graphics & Text | Print | Product List | Glossary On
Versions: 1 2 3 4 5 6 7 8 9 10 11 12 13 14 15 16 17 18 19 20 21 22 23 24 25 26 27 28 29 30 31 32 33 34 35 36 37 38 39 40 41 42 43 44 45 46 47 48 49 50
000
ASUS45 KSLC 222010
RWRUT

UTAH REGIONAL WEATHER ROUNDUP
NATIONAL WEATHER SERVICE SALT LAKE CITY UT
200 PM MDT TUE JUL 22 2014

UTZ001>011-023>025-222100-

NORTHERN UTAH

CITY           SKY/WX    TMP DP  RH WIND       PRES   REMARKS
HILL AFB         N/A     89  36  15 VRB2      30.25F
LOGAN          NOT AVBL
OGDEN            N/A     91  38  15 NW7       30.21F
PROVO AIRPORT  SUNNY     91  36  14 W6        30.22F
SALT LAKE CITY   N/A     95  26   8 VRB3      30.18F
VERNAL         SUNNY     89  29  11 VRB6      30.28F
WENDOVER         N/A     88  39  18 E9        30.19F
HEBER CITY       N/A     91  30  11 W7        30.28F
WEST JORDAN    SUNNY     95  46  18 SE12      30.22F HX  91

$$

UTZ012>022-026-027-222100-

SOUTHERN UTAH

CITY           SKY/WX    TMP DP  RH WIND       PRES   REMARKS
BRYCE CANYON     N/A     85  32  15 SE17G23   30.46F
CEDAR CITY       N/A     94  24   8 SW17G23   30.27F
MILFORD          N/A     91  27  10 MISG      30.23F
MOAB/CYNLANDS  SUNNY     97  22   7 E5        30.19F HX  90
PRICE            N/A     92  21   7 VRB3      30.33F
ST GEORGE        N/A    100  36  10 N3        30.09F HX  95
KANAB            N/A     93  32  11 SW10G16   30.26F

$$

REGIONAL REPORTS     COLORADO/ARIZONA

CITY           SKY/WX    TMP DP  RH WIND       PRES   REMARKS
CRAIG, CO      SUNNY     92  28  10 NW7       30.35F
GRAND JUNCTION SUNNY     96  23   7 MISG      30.22F HX  90
RIFLE          SUNNY     93  24   8 VRB3      30.29F
MONTROSE       SUNNY     95  30  10 VRB7      30.31F
CORTEZ         SUNNY     95  22   7 CALM      30.29F
PAGE, AZ         N/A     99  27   8 NE3       30.18F HX  92
GRAND CANYON     N/A     90  33  13 SW14G21   30.38F
KINGMAN          N/A     98  34  10 W12G22    30.13F HX  92
FLAGSTAFF      PTSUNNY   81  40  23 VRB7      30.43F

$$

REGIONAL REPORTS    NEVADA/IDAHO/WYOMING

CITY           SKY/WX    TMP DP  RH WIND       PRES   REMARKS
LAS VEGAS, NV    N/A    101  25   7 VRB5      29.98F HX  94
ELY              N/A     90  16   6 S21G33    30.30S
ELKO             N/A     89  37  16 SW16      30.20F
POCATELLO, ID  MOSUNNY   89  50  26 NW9       30.23F
BURLEY           N/A     87  51  28 N9        30.17F
EVANSTON, WY   SUNNY     84  29  13 SW10G24   30.42F
ROCK SPRINGS   SUNNY     88  26  10 N8        30.38

$$



USA.gov is the U.S. government's official web portal to all federal, state and local government web resources and services.